[[{"header":{"parameterUnit":"m.s-1","parameterCategory":1,"la1":30.2991,"la2":30.254,"lo1":-89.0895,"lo2":-89.0444,"dy":0.0017,"dx":0.0017,"nx":28,"ny":28,"refTime":"2024-06-02T03:00:00:Z","depth":0,"parameterNumber":2,"parameterNumberName":"U-component_of_WINDS"},"data":[0,0,0,0,0,0,0,0,0,0,0,0,0,0,0,0,0,0,0,0,0,0,0,0,0,0,0,0,0,0,0,0,0,0,0,0,0,0,0,0,0,0,0,0,0,0,0,0,0,0,0,0,0,0,0,0,0,0,-0.9558,-0.9558,0,-0.9511,-0.951,-0.951,-0.949,-0.949,-0.949,-0.949,-0.9441,-0.944,-0.9439,0,0,0,0,0,0,0,0,0,0,0,0,0,-0.9633,-0.9632,-0.9558,-0.9558,-0.9557,-0.9511,-0.951,-0.9509,-0.949,-0.949,-0.949,-0.949,-0.9442,-0.944,-0.9439,0,0,0,0,0,0,0,0,0,0,0,0,0,-0.9595,-0.9632,-0.9559,-0.9542,-0.954,-0.9511,-0.951,-0.9509,-0.949,-0.949,-0.949,-0.949,-0.9442,-0.944,-0.9438,-0.9423,0,0,-0.9432,-0.9431,0,0,0,0,0,0,0,0,-0.9597,-0.9592,-0.9545,-0.9543,-0.9541,-0.9506,-0.9519,-0.948,-0.949,-0.9509,-0.949,-0.949,-0.9463,-0.9459,-0.945,-0.9421,-0.9419,-0.9432,-0.9431,-0.943,-0.9429,0,0,0,0,0,0,0,-0.96,-0.9594,-0.954,-0.9544,-0.9542,-0.9537,-0.9532,-0.9511,-0.9486,-0.9507,-0.9505,-0.95,-0.9462,-0.9452,-0.9449,-0.9418,-0.9432,-0.943,-0.9429,-0.9428,-0.9374,-0.9373,0,0,0,0,0,0,-0.9605,-0.9596,-0.9541,-0.9538,-0.957,-0.9535,-0.9529,-0.9517,-0.9486,-0.9481,-0.95,-0.9499,-0.9455,-0.9451,-0.9447,-0.9427,-0.943,-0.9428,-0.9427,-0.9374,-0.9374,-0.9373,0,0,0,0,0,0,-0.9607,-0.96,-0.9543,-0.9567,-0.9559,-0.9534,-0.952,-0.9516,-0.9506,-0.948,-0.9476,-0.9495,-0.9455,-0.945,-0.9429,-0.9425,-0.9427,-0.9425,-0.9374,-0.9374,-0.9373,-0.9386,0,0,0,0,0,0,-0.9609,-0.9601,-0.9595,-0.9567,-0.9558,-0.9526,-0.952,-0.9515,-0.9503,-0.9501,-0.9474,-0.947,-0.9455,-0.9432,-0.9427,-0.9422,-0.9423,-0.9374,-0.9374,-0.9374,-0.9386,-0.9386,-0.9386,0,0,0,0,0,-0.9612,-0.96,-0.9594,-0.9588,-0.9549,-0.9526,-0.952,-0.9504,-0.9502,-0.9496,-0.9479,-0.9471,-0.9426,-0.943,-0.9424,-0.9418,-0.9375,-0.9374,-0.9374,-0.9386,-0.9386,-0.9386,0,0,0,0,0,0,-0.9628,-0.9596,-0.9589,-0.9568,-0.955,-0.9522,-0.9513,-0.9505,-0.9486,-0.9485,-0.9466,-0.946,-0.9441,-0.9427,-0.9433,-0.9402,-0.94,-0.9398,-0.9411,-0.9411,-0.9411,-0.9415,-0.9422,0,0,0,0,0,-0.9629,-0.9612,-0.9585,-0.957,-0.9561,-0.9539,-0.9528,-0.9516,-0.9496,-0.9488,-0.947,-0.9451,-0.9433,-0.9421,-0.9403,-0.9384,-0.9378,-0.9377,-0.9378,-0.9378,-0.9377,-0.9366,-0.9365,-0.9372,-0.9372,-0.9372,0,0,-0.9632,-0.9612,-0.9603,-0.9572,-0.9557,-0.954,-0.9532,-0.9515,-0.9502,-0.9486,-0.9465,-0.9451,-0.9429,-0.9409,-0.9399,-0.9397,-0.9373,-0.9377,-0.9378,-0.9376,-0.9365,-0.9364,-0.9364,-0.9371,-0.9372,-0.9372,0,0,-0.9627,-0.9611,-0.9596,-0.958,-0.9556,-0.9542,-0.9538,-0.9512,-0.9502,-0.9481,-0.9469,-0.9453,-0.9422,-0.9407,-0.9395,-0.9385,-0.9377,-0.938,-0.9381,-0.9371,-0.937,-0.937,-0.9366,-0.9365,-0.9379,-0.9379,-0.9379,0,-0.9633,-0.9607,-0.9589,-0.9572,-0.9559,-0.9544,-0.9529,-0.9515,-0.9486,-0.9478,-0.9476,-0.9437,-0.9421,-0.9397,-0.9395,-0.9386,-0.9381,-0.9383,-0.9372,-0.9371,-0.937,-0.9367,-0.9365,-0.9379,-0.9379,-0.9379,-0.9379,0,-0.9615,-0.9597,-0.9588,-0.9561,-0.9547,-0.9531,-0.9511,-0.95,-0.949,-0.9476,-0.9455,-0.9435,-0.9412,-0.9406,-0.9396,-0.9381,-0.938,-0.9376,-0.9373,-0.937,-0.9367,-0.9365,-0.938,-0.938,-0.938,-0.938,0,0,-0.9619,-0.9583,-0.958,-0.9567,-0.954,-0.9526,-0.951,-0.9487,-0.9478,-0.9459,-0.9445,-0.9419,-0.9415,-0.9401,-0.939,-0.9381,-0.9374,-0.9377,-0.9376,-0.9377,-0.9356,-0.936,-0.9359,-0.9368,-0.9368,-0.9368,-0.9358,0,-0.9611,-0.958,-0.9564,-0.9541,-0.9524,-0.9509,-0.9495,-0.9477,-0.9464,-0.9448,-0.9433,-0.9415,-0.9411,-0.9403,-0.9393,-0.9377,-0.937,-0.9377,-0.9355,-0.9354,-0.9361,-0.9357,-0.936,-0.9352,-0.9357,-0.9356,-0.9356,0,-0.9597,-0.9578,-0.9553,-0.9528,-0.952,-0.9508,-0.9486,-0.9471,-0.9451,-0.9442,-0.9427,-0.9416,-0.9398,-0.9397,-0.9373,-0.9379,-0.9369,-0.9359,-0.9359,-0.9356,-0.9355,-0.9353,-0.9349,-0.9348,-0.9354,-0.9354,-0.9354,0,-0.9602,-0.9571,-0.9551,-0.9541,-0.9512,-0.9503,-0.9491,-0.947,-0.9458,-0.944,-0.9431,-0.9411,-0.94,-0.9385,-0.9369,-0.937,-0.9346,-0.9344,-0.9338,-0.9339,-0.9333,-0.9334,-0.9327,-0.9328,-0.9328,-0.9328,-0.9328,0,-0.9595,-0.958,-0.9553,-0.9542,-0.9525,-0.9507,-0.949,-0.9477,-0.9459,-0.9444,-0.9431,-0.9417,-0.9397,-0.9381,-0.9368,-0.935,-0.9345,-0.9338,-0.9334,-0.9338,-0.9339,-0.9331,-0.9331,-0.9327,-0.9327,-0.9327,-0.9328,0,-0.9597,-0.9579,-0.9557,-0.9531,-0.9524,-0.9513,-0.9491,-0.9479,-0.9465,-0.9447,-0.9441,-0.942,-0.94,-0.9383,-0.9357,-0.9349,-0.933,-0.9326,-0.9337,-0.9335,-0.9331,-0.9331,-0.9318,-0.9316,-0.9318,-0.9318,-0.9318,0,-0.9593,-0.9582,-0.9554,-0.9543,-0.9531,-0.9514,-0.9501,-0.9483,-0.9471,-0.9447,-0.9438,-0.9418,-0.94,-0.9371,-0.9353,-0.9333,-0.9329,-0.9325,-0.9326,-0.933,-0.9328,-0.9329,-0.9328,-0.9326,-0.9326,-0.9326,-0.9326,0,-0.9588,-0.958,-0.9562,-0.9542,-0.9527,-0.951,-0.9492,-0.9485,-0.9463,-0.945,-0.943,-0.9417,-0.9391,-0.9371,-0.935,-0.9337,-0.9328,-0.9326,-0.9324,-0.9328,-0.9334,-0.933,-0.9338,-0.9326,-0.9326,-0.9326,-0.9326,-0.9326,-0.9587,-0.9576,-0.9555,-0.9536,-0.9521,-0.9505,-0.9493,-0.9477,-0.946,-0.9437,-0.9428,-0.9408,-0.9388,-0.9358,-0.9346,-0.933,-0.9328,-0.9325,-0.9324,-0.9323,-0.9324,-0.9337,-0.9326,-0.9326,-0.9326,-0.9326,-0.9326,0,-0.9581,-0.9567,-0.955,-0.9526,-0.9511,-0.9503,-0.9484,-0.9472,-0.9454,-0.9436,-0.942,-0.9397,-0.9378,-0.9359,-0.9339,-0.933,-0.9325,-0.9325,-0.9326,-0.9323,-0.9327,-0.9331,-0.933,-0.933,-0.933,-0.933,-0.933,-0.933,-0.9576,-0.9557,-0.9546,-0.952,-0.9506,-0.9486,-0.9475,-0.946,-0.9446,-0.9421,-0.9405,-0.9393,-0.9375,-0.9353,-0.9336,-0.933,-0.9324,-0.9325,-0.9319,-0.9323,-0.9323,-0.9322,-0.9326,-0.9324,-0.9324,-0.9316,-0.9315,-0.9315]},{"header":{"parameterUnit":"m.s-1","parameterCategory":1,"la1":30.2991,"la2":30.254,"lo1":-89.0895,"lo2":-89.0444,"dy":0.0017,"dx":0.0017,"nx":28,"ny":28,"refTime":"2024-06-02T03:00:00:Z","depth":0,"parameterNumber":3,"parameterNumberName":"V-component_of_WINDS"},"data":[0,0,0,0,0,0,0,0,0,0,0,0,0,0,0,0,0,0,0,0,0,0,0,0,0,0,0,0,0,0,0,0,0,0,0,0,0,0,0,0,0,0,0,0,0,0,0,0,0,0,0,0,0,0,0,0,0,0,2.9687,2.9687,0,2.9721,2.9721,2.9722,2.9689,2.9688,2.9687,2.9685,2.9717,2.9719,2.9721,0,0,0,0,0,0,0,0,0,0,0,0,0,2.959,2.9592,2.9687,2.9687,2.9688,2.9721,2.9721,2.9722,2.9689,2.9688,2.9686,2.9685,2.9716,2.9719,2.9721,0,0,0,0,0,0,0,0,0,0,0,0,0,2.9629,2.9593,2.9687,2.9676,2.9675,2.9721,2.9721,2.9722,2.969,2.9688,2.9686,2.9684,2.9715,2.9718,2.9721,2.9779,0,0,2.9731,2.9732,0,0,0,0,0,0,0,0,2.9627,2.9633,2.9677,2.9676,2.9676,2.9699,2.9699,2.9741,2.969,2.9684,2.9685,2.9683,2.9712,2.9715,2.9726,2.978,2.9781,2.9731,2.9733,2.9734,2.9735,0,0,0,0,0,0,0,2.9624,2.9631,2.97,2.9677,2.9677,2.9668,2.9671,2.9707,2.9708,2.9684,2.9682,2.9687,2.9711,2.9723,2.9726,2.9782,2.9731,2.9734,2.9735,2.9737,2.9884,2.9886,0,0,0,0,0,0,2.9623,2.9629,2.9699,2.9701,2.9646,2.9671,2.9675,2.9693,2.9708,2.9708,2.9688,2.9685,2.9719,2.9723,2.9727,2.9795,2.9734,2.9737,2.9739,2.9882,2.9885,2.9887,0,0,0,0,0,0,2.9621,2.963,2.9698,2.9665,2.9672,2.9675,2.9696,2.9695,2.9706,2.9711,2.9711,2.97,2.9717,2.9723,2.9766,2.9796,2.9738,2.9741,2.988,2.9883,2.9886,2.9932,0,0,0,0,0,0,2.9619,2.9629,2.9652,2.9665,2.9674,2.9737,2.9698,2.9697,2.9712,2.9708,2.9722,2.9722,2.9716,2.9762,2.9769,2.9799,2.9743,2.9877,2.9881,2.9885,2.9927,2.9936,2.9943,0,0,0,0,0,2.9615,2.9663,2.9653,2.9662,2.9703,2.9739,2.9744,2.9737,2.9715,2.9737,2.974,2.9722,2.9792,2.9767,2.9775,2.9806,2.9875,2.988,2.9885,2.9924,2.9934,2.9943,0,0,0,0,0,0,2.9652,2.9664,2.9654,2.9707,2.9722,2.9733,2.9761,2.9748,2.9769,2.9765,2.9754,2.9758,2.9803,2.9809,2.9781,2.9862,2.983,2.9836,2.9857,2.9866,2.9874,2.9872,2.9746,0,0,0,0,0,2.9666,2.9695,2.9704,2.975,2.9759,2.9759,2.9774,2.9768,2.9783,2.9789,2.9794,2.9809,2.9834,2.985,2.9874,2.9928,2.993,2.9953,2.9961,2.9968,2.9973,3.0002,3.0012,2.9903,2.9903,2.9903,0,0,2.9695,2.9706,2.9725,2.9758,2.9769,2.9799,2.9764,2.9797,2.9819,2.9793,2.9835,2.984,2.9855,2.9904,2.9926,2.991,3.0004,2.9974,2.9979,2.9981,3.0008,3.0018,3.0028,2.9906,2.9905,2.9905,0,0,2.9765,2.9776,2.9815,2.9827,2.9845,2.9845,2.9854,2.9868,2.987,2.9912,2.9893,2.9918,2.9962,2.9973,2.9985,3.0059,3.0043,3.0066,3.0107,3.0136,3.0144,3.0152,3.0178,3.0187,3.0072,3.0072,3.0072,0,2.9799,2.9844,2.9837,2.9872,2.9886,2.9866,2.9905,2.9917,2.994,2.9951,2.9933,2.9987,2.9996,3.0047,3.0065,3.0075,3.0085,3.0065,3.0144,3.0151,3.0158,3.0183,3.0193,3.0075,3.0075,3.0074,3.0074,0,2.9885,2.9916,2.9946,2.9971,2.9989,3.0025,3.0023,3.0042,3.0034,3.0036,3.0078,3.0088,3.0113,3.0125,3.0117,3.0175,3.0164,3.0145,3.0113,3.0172,3.0194,3.0204,3.0079,3.0078,3.0077,3.0076,0,0,2.9977,2.9998,3.0009,3.002,3.0038,3.0062,3.0097,3.0123,3.0139,3.0156,3.0185,3.0222,3.0205,3.0218,3.0211,3.0236,3.0294,3.0214,3.0214,3.0228,3.0358,3.0372,3.0383,3.0283,3.0285,3.0287,3.0357,0,3.0047,3.0109,3.0104,3.0163,3.0192,3.0173,3.0204,3.0217,3.022,3.0243,3.0245,3.0272,3.0247,3.0255,3.0279,3.0282,3.032,3.0277,3.0309,3.0311,3.0306,3.0395,3.041,3.0476,3.0366,3.0367,3.0368,0,3.0136,3.0157,3.022,3.0233,3.0245,3.0273,3.0296,3.0319,3.0334,3.0334,3.0349,3.0338,3.0373,3.034,3.0387,3.0358,3.0371,3.0375,3.0377,3.0379,3.0343,3.04,3.0497,3.0507,3.0382,3.0381,3.038,0,3.0197,3.0241,3.0284,3.0294,3.0311,3.0331,3.0339,3.0352,3.0368,3.0387,3.0397,3.0421,3.0433,3.0451,3.0446,3.0423,3.0494,3.0461,3.0495,3.0495,3.051,3.0509,3.061,3.0519,3.0519,3.0519,3.0519,0,3.0275,3.0313,3.0312,3.0338,3.0381,3.0374,3.0416,3.0421,3.0433,3.0459,3.0444,3.0469,3.0461,3.0485,3.0482,3.0521,3.0527,3.0527,3.0526,3.0529,3.0529,3.0537,3.0532,3.0522,3.0521,3.0521,3.052,0,3.035,3.035,3.0396,3.0409,3.0413,3.0443,3.0454,3.0478,3.0479,3.0513,3.052,3.0522,3.055,3.0547,3.0578,3.0575,3.0624,3.0617,3.062,3.0618,3.0651,3.0648,3.0761,3.0775,3.0675,3.0676,3.0677,0,3.04,3.0429,3.0445,3.0462,3.0472,3.0499,3.0516,3.051,3.0527,3.0547,3.0569,3.0595,3.0616,3.0661,3.0664,3.0688,3.0681,3.0719,3.0685,3.0687,3.0682,3.068,3.0683,3.0726,3.0727,3.0728,3.0729,0,3.0488,3.0486,3.0511,3.0536,3.0556,3.0575,3.0592,3.0606,3.0602,3.0622,3.0651,3.0667,3.0699,3.0726,3.0748,3.0755,3.0741,3.074,3.0749,3.0752,3.0752,3.0752,3.0638,3.0737,3.0736,3.0736,3.0735,3.0735,3.0551,3.0577,3.0592,3.062,3.0632,3.0649,3.0672,3.0677,3.0701,3.0727,3.0722,3.0755,3.0768,3.0797,3.0806,3.0831,3.0817,3.083,3.0833,3.0836,3.084,3.0748,3.0835,3.0835,3.0834,3.0834,3.0834,0,3.0638,3.0648,3.0673,3.0698,3.072,3.0706,3.0724,3.0743,3.0772,3.0786,3.0808,3.0841,3.0866,3.0872,3.0896,3.0915,3.0909,3.0921,3.092,3.0921,3.0851,3.0841,3.0925,3.0925,3.0925,3.0925,3.0925,3.0925,3.0686,3.0728,3.0729,3.0777,3.0785,3.0818,3.0829,3.0844,3.0856,3.0893,3.0915,3.0919,3.093,3.0955,3.0977,3.0978,3.0988,3.1002,3.1001,3.0935,3.0926,3.0917,3.0908,3.1005,3.1005,3.1069,3.1069,3.107]}]]